[[{"header":{"parameterUnit":"m.s-1","parameterCategory":1,"la1":30.2991,"la2":30.254,"lo1":-89.0895,"lo2":-89.0444,"dy":0.0017,"dx":0.0017,"nx":28,"ny":28,"refTime":"2025-06-06T03:00:00:Z","depth":0,"parameterNumber":2,"parameterNumberName":"U-component_of_WINDS"},"data":[0,0,0,0,0,0,0,0,0,0,0,0,0,0,0,0,0,0,0,0,0,0,0,0,0,0,0,0,0,0,0,0,0,0,0,0,0,0,0,0,0,0,0,0,0,0,0,0,0,0,0,0,0,0,0,0,0,0,4.7204,4.7206,0,4.7386,4.7388,4.739,4.736,4.7357,4.7354,4.7351,4.7538,4.7545,4.7553,0,0,0,0,0,0,0,0,0,0,0,0,0,4.6831,4.6838,4.7204,4.7206,4.7209,4.7385,4.7388,4.739,4.7361,4.7357,4.7353,4.735,4.7535,4.7544,4.7554,0,0,0,0,0,0,0,0,0,0,0,0,0,4.7001,4.684,4.7204,4.7215,4.7218,4.7385,4.7388,4.7391,4.7362,4.7357,4.7352,4.7348,4.7532,4.7543,4.7555,4.7722,0,0,4.7591,4.7596,0,0,0,0,0,0,0,0,4.6991,4.7015,4.7211,4.7215,4.7218,4.7345,4.7325,4.7502,4.7363,4.7307,4.7351,4.7346,4.7478,4.7493,4.7538,4.7731,4.7739,4.7592,4.7599,4.7604,4.7608,0,0,0,0,0,0,0,4.698,4.7007,4.7276,4.7214,4.7218,4.7211,4.723,4.7358,4.7416,4.7312,4.731,4.7332,4.7478,4.7527,4.7542,4.7742,4.7592,4.7602,4.761,4.7614,4.8078,4.8083,0,0,0,0,0,0,4.6964,4.6997,4.727,4.7281,4.7091,4.7221,4.7243,4.7309,4.7415,4.7427,4.7336,4.733,4.7509,4.7528,4.7548,4.7748,4.7604,4.7615,4.7622,4.8072,4.8079,4.8084,0,0,0,0,0,0,4.6957,4.6989,4.7263,4.7139,4.7173,4.7233,4.7308,4.7315,4.7363,4.7433,4.7443,4.7374,4.7506,4.7532,4.7678,4.7755,4.7621,4.7632,4.8066,4.8074,4.8082,4.8151,0,0,0,0,0,0,4.6946,4.6987,4.7051,4.714,4.718,4.739,4.7313,4.7322,4.7384,4.7378,4.7472,4.7483,4.7504,4.7661,4.769,4.7768,4.7641,4.806,4.807,4.8079,4.8142,4.816,4.8176,0,0,0,0,0,4.6933,4.7064,4.7054,4.7087,4.7261,4.7395,4.7417,4.7438,4.739,4.7455,4.7499,4.748,4.7742,4.7676,4.7709,4.7792,4.8055,4.8067,4.8078,4.8135,4.8157,4.8176,0,0,0,0,0,0,4.6982,4.7076,4.7066,4.723,4.7305,4.7389,4.7472,4.7462,4.7551,4.7542,4.7565,4.7587,4.7735,4.7778,4.7703,4.7958,4.7892,4.791,4.7923,4.7945,4.7961,4.7947,4.7651,0,0,0,0,0,4.7012,4.7113,4.7189,4.7327,4.7364,4.7412,4.7471,4.7481,4.7558,4.759,4.7645,4.7721,4.782,4.7886,4.7981,4.8149,4.8168,4.8222,4.8239,4.8252,4.8268,4.8357,4.8381,4.8123,4.8123,4.8123,0,0,4.7075,4.7139,4.7201,4.7338,4.7397,4.7499,4.7438,4.755,4.7626,4.7607,4.7747,4.7791,4.7878,4.8035,4.8107,4.8076,4.8343,4.8267,4.8278,4.8286,4.8372,4.8396,4.8418,4.8131,4.8129,4.8128,0,0,4.7242,4.7301,4.7421,4.748,4.757,4.76,4.7629,4.7715,4.7743,4.7885,4.7871,4.7962,4.8134,4.8195,4.8249,4.8437,4.8422,4.8468,4.8555,4.8641,4.8662,4.868,4.8744,4.8767,4.8483,4.8484,4.8484,0,4.7309,4.7463,4.7484,4.7596,4.7656,4.7643,4.7763,4.782,4.7937,4.7978,4.7941,4.8154,4.8212,4.8382,4.8427,4.8473,4.8504,4.8456,4.8657,4.8676,4.8693,4.8754,4.8779,4.8488,4.8488,4.8487,4.8487,0,4.7539,4.7646,4.7732,4.7843,4.7913,4.8029,4.8067,4.8135,4.8139,4.8173,4.8316,4.8385,4.8492,4.8534,4.854,4.8705,4.8682,4.8652,4.8585,4.8722,4.878,4.8804,4.8495,4.8493,4.8492,4.8491,0,0,4.7742,4.7862,4.7893,4.7942,4.8039,4.8122,4.8237,4.8341,4.8398,4.8479,4.8574,4.8719,4.869,4.8751,4.8764,4.884,4.8981,4.88,4.8802,4.8829,4.9164,4.9184,4.9211,4.8973,4.8977,4.8981,4.9156,0,4.7915,4.8117,4.8139,4.8319,4.8417,4.8405,4.8505,4.8575,4.861,4.8697,4.8736,4.8837,4.8793,4.8829,4.8905,4.8948,4.9049,4.8936,4.906,4.9064,4.9036,4.9242,4.9265,4.9426,4.9179,4.9183,4.9186,0,4.8145,4.823,4.842,4.8501,4.8543,4.8632,4.8728,4.8813,4.8892,4.8911,4.8979,4.8981,4.9098,4.9029,4.9189,4.9112,4.9165,4.9194,4.92,4.921,4.9131,4.9255,4.9479,4.9501,4.9222,4.9219,4.9217,0,4.8269,4.8432,4.8566,4.8609,4.8708,4.877,4.8815,4.8889,4.8949,4.9034,4.9073,4.9171,4.9224,4.9299,4.9327,4.9274,4.9486,4.9419,4.9504,4.9503,4.9547,4.9543,4.9778,4.9585,4.9585,4.9584,4.9584,0,4.8459,4.8575,4.8623,4.8705,4.8834,4.8857,4.8984,4.9025,4.9091,4.918,4.9178,4.9261,4.9294,4.9383,4.9406,4.9533,4.9558,4.9576,4.958,4.9575,4.9572,4.9608,4.9596,4.9591,4.9589,4.9588,4.9587,0,4.8619,4.8657,4.8801,4.8882,4.8905,4.8997,4.9066,4.9145,4.9178,4.9291,4.9319,4.9371,4.9475,4.9511,4.9638,4.9653,4.9801,4.9797,4.9774,4.9774,4.9855,4.9845,5.0119,5.0154,4.9941,4.9943,4.9944,0,4.8737,4.8825,4.8915,4.8974,4.9021,4.9117,4.9178,4.9205,4.9269,4.9364,4.9431,4.9534,4.9617,4.9784,4.9834,4.993,4.9926,5.0016,4.9941,4.9932,4.9924,4.9917,4.9925,5.0029,5.0031,5.0033,5.0034,0,4.894,4.8953,4.9042,4.9137,4.921,4.9287,4.936,4.9409,4.9446,4.9518,4.9624,4.9689,4.9818,4.9919,5.0017,5.0062,5.0054,5.0058,5.0081,5.0075,5.0057,5.0065,4.9808,5.0051,5.0049,5.0048,5.0047,5.0046,4.908,4.9157,4.9232,4.933,4.9388,4.9457,4.9534,4.9576,4.9665,4.9771,4.9782,4.9895,4.997,5.01,5.015,5.0239,5.0213,5.0249,5.0258,5.0265,5.027,5.0045,5.0257,5.0257,5.0256,5.0256,5.0256,0,4.928,4.9328,4.9418,4.952,4.9597,4.9583,4.9664,4.9729,4.9828,4.9899,4.998,5.0101,5.0199,5.0256,5.0354,5.0414,5.0412,5.0438,5.0433,5.0442,5.0288,5.0256,5.0438,5.0438,5.0438,5.0438,5.0438,5.0438,4.9393,4.9522,4.9544,4.9701,4.9747,4.9858,4.9904,4.9967,5.0023,5.0157,5.0238,5.0275,5.0339,5.0441,5.053,5.0544,5.0579,5.0607,5.0619,5.0473,5.0454,5.0436,5.0405,5.0616,5.0616,5.0765,5.0766,5.0768]},{"header":{"parameterUnit":"m.s-1","parameterCategory":1,"la1":30.2991,"la2":30.254,"lo1":-89.0895,"lo2":-89.0444,"dy":0.0017,"dx":0.0017,"nx":28,"ny":28,"refTime":"2025-06-06T03:00:00:Z","depth":0,"parameterNumber":3,"parameterNumberName":"V-component_of_WINDS"},"data":[0,0,0,0,0,0,0,0,0,0,0,0,0,0,0,0,0,0,0,0,0,0,0,0,0,0,0,0,0,0,0,0,0,0,0,0,0,0,0,0,0,0,0,0,0,0,0,0,0,0,0,0,0,0,0,0,0,0,1.5192,1.5193,0,1.5253,1.5253,1.5254,1.5229,1.5228,1.5227,1.5225,1.5288,1.5291,1.5294,0,0,0,0,0,0,0,0,0,0,0,0,0,1.5054,1.5057,1.5192,1.5193,1.5193,1.5252,1.5253,1.5254,1.523,1.5228,1.5226,1.5225,1.5287,1.5291,1.5294,0,0,0,0,0,0,0,0,0,0,0,0,0,1.5115,1.5058,1.5192,1.5188,1.5189,1.5252,1.5253,1.5254,1.523,1.5228,1.5226,1.5224,1.5286,1.529,1.5295,1.5366,0,0,1.5308,1.531,0,0,0,0,0,0,0,0,1.5111,1.512,1.5188,1.5189,1.5189,1.5231,1.5228,1.5292,1.5231,1.5214,1.5225,1.5223,1.5271,1.5277,1.5293,1.5369,1.5371,1.5309,1.5312,1.5314,1.5315,0,0,0,0,0,0,0,1.5107,1.5117,1.5216,1.5189,1.519,1.5184,1.519,1.524,1.5254,1.5216,1.5214,1.5221,1.5271,1.5288,1.5294,1.5372,1.5309,1.5313,1.5316,1.5317,1.5508,1.5511,0,0,0,0,0,0,1.5103,1.5114,1.5214,1.5218,1.5144,1.5188,1.5195,1.522,1.5253,1.5256,1.5223,1.522,1.5282,1.5289,1.5296,1.5381,1.5314,1.5318,1.532,1.5506,1.5509,1.5512,0,0,0,0,0,0,1.51,1.5112,1.5211,1.5165,1.5177,1.5192,1.5221,1.5222,1.524,1.5259,1.5261,1.5239,1.528,1.529,1.5348,1.5383,1.532,1.5324,1.5503,1.5507,1.551,1.5552,0,0,0,0,0,0,1.5096,1.5111,1.5138,1.5166,1.518,1.5263,1.5223,1.5225,1.5248,1.5244,1.5274,1.5277,1.5279,1.5342,1.5353,1.5388,1.5327,1.55,1.5505,1.5509,1.5548,1.5556,1.5564,0,0,0,0,0,1.5091,1.5148,1.514,1.5152,1.5214,1.5265,1.5273,1.5274,1.525,1.5278,1.529,1.5276,1.5377,1.5348,1.536,1.5397,1.5498,1.5504,1.5509,1.5544,1.5555,1.5564,0,0,0,0,0,0,1.5125,1.5152,1.5143,1.521,1.5236,1.5261,1.5296,1.5286,1.5319,1.5314,1.5314,1.5321,1.5381,1.5395,1.5362,1.5467,1.5434,1.5442,1.5456,1.5467,1.5475,1.5471,1.5331,0,0,0,0,0,1.514,1.5179,1.52,1.5257,1.527,1.5281,1.5303,1.5302,1.5328,1.5338,1.5355,1.5381,1.5418,1.5443,1.5479,1.5549,1.5555,1.558,1.5589,1.5595,1.5603,1.564,1.5652,1.5529,1.5529,1.5529,0,0,1.5172,1.5191,1.5216,1.5265,1.5284,1.5324,1.529,1.5334,1.5364,1.5345,1.5402,1.5414,1.5443,1.5508,1.5537,1.5521,1.5637,1.5602,1.5607,1.5611,1.5647,1.5658,1.5669,1.5533,1.5532,1.5531,0,0,1.525,1.5269,1.5319,1.5339,1.5368,1.5374,1.5386,1.5413,1.542,1.5477,1.5463,1.5498,1.5563,1.5584,1.5603,1.5688,1.5677,1.57,1.5743,1.578,1.579,1.5798,1.5829,1.584,1.5707,1.5707,1.5707,0,1.5287,1.5347,1.5346,1.5391,1.5412,1.5396,1.5446,1.5466,1.5505,1.5521,1.5502,1.5582,1.56,1.5669,1.569,1.5706,1.5719,1.5697,1.5788,1.5797,1.5805,1.5834,1.5845,1.5709,1.5709,1.5709,1.5709,0,1.5389,1.5431,1.5468,1.5506,1.5531,1.5579,1.5585,1.5611,1.5607,1.5615,1.5672,1.5693,1.5733,1.5748,1.5745,1.5817,1.5806,1.5788,1.5755,1.5819,1.5847,1.5858,1.5713,1.5712,1.5712,1.5711,0,0,1.5493,1.5528,1.5542,1.5559,1.5589,1.5622,1.5668,1.5706,1.5728,1.5755,1.5794,1.5849,1.5832,1.5853,1.5852,1.5884,1.595,1.5862,1.5862,1.5878,1.603,1.6044,1.6057,1.5942,1.5944,1.5945,1.6028,0,1.5574,1.5655,1.5655,1.573,1.5768,1.5752,1.5793,1.5816,1.5824,1.5858,1.5867,1.5905,1.588,1.5893,1.5924,1.5935,1.598,1.5929,1.5978,1.598,1.5972,1.6071,1.6086,1.6163,1.6038,1.604,1.6041,0,1.568,1.571,1.5789,1.5813,1.5829,1.5865,1.59,1.5932,1.5957,1.5961,1.5985,1.5978,1.6025,1.5989,1.6053,1.6018,1.6038,1.6046,1.6049,1.6055,1.6015,1.608,1.6187,1.6199,1.6058,1.6057,1.6056,0,1.5747,1.5808,1.5863,1.5877,1.5907,1.5933,1.5946,1.5969,1.5992,1.6022,1.6036,1.6071,1.6091,1.6118,1.612,1.6094,1.6185,1.615,1.619,1.619,1.621,1.6209,1.6324,1.6222,1.6222,1.6222,1.6221,0,1.5839,1.5888,1.5893,1.5927,1.5981,1.598,1.6033,1.6044,1.6065,1.61,1.6089,1.6122,1.6124,1.6158,1.616,1.6213,1.6221,1.6226,1.6226,1.6227,1.6227,1.6241,1.6236,1.6225,1.6224,1.6223,1.6223,0,1.5924,1.593,1.5988,1.6011,1.6018,1.6057,1.6076,1.6108,1.6115,1.616,1.617,1.6181,1.622,1.6225,1.6272,1.6273,1.6337,1.6331,1.6328,1.6328,1.6367,1.6364,1.6495,1.6512,1.6399,1.64,1.6401,0,1.5982,1.6019,1.6046,1.6068,1.6083,1.612,1.6143,1.6143,1.6167,1.6198,1.6226,1.6264,1.6295,1.6359,1.637,1.6406,1.6401,1.6444,1.6406,1.6406,1.6402,1.64,1.6404,1.6452,1.6453,1.6454,1.6455,0,1.6085,1.6086,1.6119,1.6153,1.618,1.6207,1.6232,1.6252,1.6254,1.6282,1.6322,1.6346,1.6392,1.6431,1.6465,1.6478,1.6468,1.6467,1.6478,1.648,1.6477,1.648,1.6349,1.6464,1.6463,1.6463,1.6462,1.6462,1.6159,1.6191,1.6214,1.6251,1.627,1.6293,1.6325,1.6335,1.6368,1.6406,1.6404,1.6448,1.6471,1.6516,1.6532,1.6566,1.6552,1.6568,1.6572,1.6577,1.6581,1.6471,1.6573,1.6572,1.6572,1.6572,1.6572,0,1.6261,1.6275,1.6309,1.6344,1.6373,1.636,1.6387,1.6412,1.6451,1.6474,1.6504,1.6549,1.6586,1.66,1.6636,1.666,1.6656,1.667,1.6668,1.6672,1.6591,1.6578,1.6673,1.6672,1.6672,1.6672,1.6672,1.6672,1.6318,1.6371,1.6375,1.6437,1.645,1.6493,1.651,1.6531,1.6549,1.6601,1.6631,1.664,1.6659,1.6696,1.6728,1.6732,1.6745,1.6761,1.6762,1.6687,1.6677,1.6668,1.6655,1.6764,1.6764,1.684,1.6841,1.6841]}]]